Skip Page Navigation
NASA JPL Caltech
NASA Logo - Jet Propulsion Laboratory + View the NASA Portal
+ Near-Earth Object (NEO) Program
Search JPL
JPL Home Earth Solar System Stars & Galaxies Technology
JPL Solar System Dynamics
BODIES ORBITS EPHEMERIDES TOOLS PHYSICAL DATA DISCOVERY FAQ SITE MAP
JPL Small-Body Database Browser
Search: [ help ]  
(2006 XD2)
Classification: Apollo [NEO, PHA]          SPK-ID: 3363379
Ephemeris | Orbit Diagram | Orbital Elements | Physical Parameters | Close-Approach Data ]

[ hide orbit diagram ]
Orbit Diagram
Note: Make sure you have Java enabled on your browser to see the applet. This applet is provided as a 3D orbit visualization tool. The applet was implemented using 2-body methods, and hence should not be used for determining accurate long-term trajectories (over several years or decades) or planetary encounter circumstances. For accurate long-term ephemerides, please instead use our Horizons system.
Orbit Viewer

Additional Notes: the orbits shown in the applet are color coded. The planets are white lines, and the asteroid/comet is a blue line. The bright white line indicates the portion of the orbit that is above the ecliptic plane, and the darker portion is below the ecliptic plane. Likewise for the asteroid/comet orbit, the light blue indicates the portion above the ecliptic plane, and the dark blue the portion below the ecliptic plane.

Orbit Viewer applet originally written and kindly provided by Osamu Ajiki (AstroArts), and further modified by Ron Baalke (JPL).


Orbital Elements at Epoch 2456400.5 (2013-Apr-18.0) TDB
Reference: JPL 24 (heliocentric ecliptic J2000)
 Element Value Uncertainty (1-sigma)   Units 
e .4252359626339967 2.8089e-07  
a 1.267893049053406 1.6372e-07 AU
q .7287393278222277 2.9069e-07 AU
i 3.568088551852914 2.1799e-05 deg
node 65.7118945030046 0.00010643 deg
peri 109.3704013495554 0.00010883 deg
M 114.508211679676 0.00030386 deg
tp 2456234.634336755511
(2012-Nov-03.13433676)
0.00040802 JED
period 521.4616304990664
1.43
0.000101
2.765e-07
d
yr
n .6903671889635695 1.3372e-07 deg/d
Q 1.807046770284585 2.3334e-07 AU
  Orbit Determination Parameters
   # obs. used (total)      312  
   data-arc span      1394 days (3.82 yr)  
   first obs. used      2006-11-17  
   last obs. used      2010-09-11  
   planetary ephem.      DE405  
   SB-pert. ephem.      SB405-CPV-2  
   condition code      1  
   fit RMS      .56348  
   data source      ORB  
   producer      Otto Matic  
   solution date      2011-Dec-10 23:50:08  

Additional Information
 Earth MOID = .017534 AU 
 T_jup = 4.996 
[ show covariance matrix ]

Ephemeris | Orbit Diagram | Orbital Elements | Physical Parameters | Close-Approach Data ]

Physical Parameter Table
Parameter Symbol Value Units Sigma Reference Notes
absolute magnitude H 21.061 mag .48252 24 autocmod 2.5b

[ show close-approach data ]
Ephemeris | Orbit Diagram | Orbital Elements | Physical Parameters | Close-Approach Data ]
ABOUT SSD CREDITS/AWARDS PRIVACY/COPYRIGHT GLOSSARY LINKS
FirstGov 2013-Jun-19 00:21 UT
(server date/time)  
NASA Home Page
Site Manager:   Donald K. Yeomans
Webmaster  Alan B. Chamberlin